Location: Alladorf
(49.9620°N, 11.3790°E)
Time: 20:19:12
(UTC+00:00)

ADEOS - Pass Details

Date: 29 November 2020
Orbit: 792 x 795 km, 98.9° (Epoch: 24 January)

Event Time Altitude Azimuth Distance (km) Brightness Sun altitude
Rises 04:25:35 0° 13° (NNE) 3,311 6.9 -22.2°
Reaches altitude 10° 04:27:56 10° 10° (N) 2,377 6.1 -21.8°
Maximum altitude 04:33:07 65° 290° (WNW) 875 3.5 -21.0°
Drops below altitude 10° 04:38:16 10° 210° (SSW) 2,359 5.8 -20.2°
Sets 04:40:36 0° 207° (SSW) 3,283 6.6 -19.8°
